Terminal Aerodrome Forecast
Issued by NWS Raleigh/Durham, NC

Current Version | Previous Version | Text Only | Print | Product List | Glossary On
Versions: 1 2 3 4 5 6 7 8 9 10 11 12 13 14 15 16 17 18 19 20 21 22 23 24 25 26 27 28 29 30 31 32 33 34 35 36 37 38 39 40 41 42 43 44 45 46 47 48 49 50
000 FTUS42 KRAH 251136 TAFGSO TAF KGSO 251136Z 2512/2612 03007KT P6SM OVC006 TEMPO 2512/2516 6SM -DZ BR OVC004 FM251600 36010KT P6SM OVC009 FM260000 36010KT P6SM OVC015 FM260600 VRB05KT P6SM SCT035=

USA.gov is the U.S. government's official web portal to all federal, state and local government web resources and services.